Time,TemperatureF,DewpointF,PressureIn,WindDirection,WindDirectionDegrees,WindSpeedMPH,WindSpeedGustMPH,Humidity,HourlyPrecipIn,Conditions,Clouds,dailyrainin,SoftwareType,DateUTC
2013-01-31 00:01:00,39.0,28.0,29.96,West,270,6.0,-999.0,65,-99.99,,,0.02,,2013-01-31 06:01:00,
2013-01-31 00:10:00,39.0,28.0,29.96,West,270,6.0,-999.0,65,-99.99,,,0.02,,2013-01-31 06:10:00,
2013-01-31 08:02:00,34.0,28.0,30.15,WSW,249,6.0,-999.0,80,-99.99,,,0.02,,2013-01-31 14:02:00,
2013-01-31 08:11:00,34.0,28.0,30.15,WSW,249,6.0,-999.0,80,-99.99,,,0.02,,2013-01-31 14:11:00,
2013-01-31 08:22:00,34.0,28.0,30.17,SW,232,6.0,-999.0,80,-99.99,,,0.02,,2013-01-31 14:22:00,
2013-01-31 08:31:00,34.0,29.0,30.18,WSW,243,4.0,-999.0,81,-99.99,,,0.02,,2013-01-31 14:31:00,
2013-01-31 08:42:00,34.0,29.0,30.18,WSW,243,4.0,-999.0,81,-99.99,,,0.02,,2013-01-31 14:42:00,
2013-01-31 08:52:00,34.0,28.0,30.19,WSW,239,8.0,-999.0,79,-99.99,,,0.02,,2013-01-31 14:52:00,
2013-01-31 09:03:00,34.0,28.0,30.19,NNW,327,6.0,-999.0,78,-99.99,,,0.02,,2013-01-31 15:03:00,
2013-01-31 09:12:00,34.0,28.0,30.19,NNW,327,6.0,-999.0,78,-99.99,,,0.02,,2013-01-31 15:12:00,
2013-01-31 09:22:00,35.0,28.0,30.20,NNE,19,4.0,-999.0,76,-99.99,,,0.02,,2013-01-31 15:22:00,
2013-01-31 09:32:00,35.0,29.0,30.20,SW,228,5.0,-999.0,77,-99.99,,,0.02,,2013-01-31 15:32:00,
2013-01-31 09:42:00,35.0,29.0,30.20,SW,228,5.0,-999.0,77,-99.99,,,0.02,,2013-01-31 15:42:00,
2013-01-31 09:52:00,36.0,29.0,30.20,West,274,6.0,-999.0,76,-99.99,,,0.02,,2013-01-31 15:52:00,
2013-01-31 10:03:00,36.0,28.0,30.21,SW,224,8.0,-999.0,73,-99.99,,,0.02,,2013-01-31 16:03:00,
2013-01-31 10:12:00,36.0,28.0,30.21,SW,224,8.0,-999.0,73,-99.99,,,0.02,,2013-01-31 16:12:00,
2013-01-31 10:22:00,37.0,29.0,30.21,SW,233,8.0,-999.0,72,-99.99,,,0.02,,2013-01-31 16:22:00,
2013-01-31 10:32:00,38.0,29.0,30.21,NW,318,6.0,-999.0,69,-99.99,,,0.02,,2013-01-31 16:32:00,
2013-01-31 10:42:00,38.0,29.0,30.21,NW,318,6.0,-999.0,69,-99.99,,,0.02,,2013-01-31 16:42:00,
2013-01-31 10:51:00,38.0,29.0,30.22,WSW,246,7.0,-999.0,70,-99.99,,,0.02,,2013-01-31 16:51:00,
2013-01-31 11:02:00,39.0,29.0,30.22,SW,230,7.0,-999.0,66,-99.99,,,0.02,,2013-01-31 17:02:00,
2013-01-31 11:12:00,39.0,29.0,30.22,SW,230,7.0,-999.0,66,-99.99,,,0.02,,2013-01-31 17:12:00,
2013-01-31 11:23:00,39.0,29.0,30.23,West,271,8.0,-999.0,66,-99.99,,,0.02,,2013-01-31 17:23:00,
2013-01-31 11:32:00,40.0,30.0,30.22,West,267,5.0,-999.0,67,-99.99,,,0.02,,2013-01-31 17:32:00,
2013-01-31 11:43:00,40.0,30.0,30.22,West,267,5.0,-999.0,67,-99.99,,,0.02,,2013-01-31 17:43:00,
2013-01-31 11:53:00,40.0,29.0,30.22,West,279,5.0,-999.0,64,-99.99,,,0.02,,2013-01-31 17:53:00,
2013-01-31 12:02:00,42.0,31.0,30.21,WSW,257,5.0,-999.0,66,-99.99,,,0.02,,2013-01-31 18:02:00,
2013-01-31 12:12:00,42.0,29.0,30.20,WSW,256,4.0,-999.0,60,-99.99,,,0.02,,2013-01-31 18:12:00,
2013-01-31 12:22:00,42.0,29.0,30.20,WSW,256,4.0,-999.0,60,-99.99,,,0.02,,2013-01-31 18:22:00,
2013-01-31 12:32:00,43.0,30.0,30.19,WNW,285,5.0,-999.0,61,-99.99,,,0.02,,2013-01-31 18:32:00,
2013-01-31 12:43:00,43.0,30.0,30.19,WNW,285,5.0,-999.0,61,-99.99,,,0.02,,2013-01-31 18:43:00,
2013-01-31 12:52:00,44.0,29.0,30.18,WSW,248,5.0,-999.0,55,-99.99,,,0.02,,2013-01-31 18:52:00,
2013-01-31 13:02:00,45.0,29.0,30.18,WNW,296,3.0,-999.0,53,-99.99,,,0.02,,2013-01-31 19:02:00,
2013-01-31 13:12:00,45.0,29.0,30.18,WNW,296,3.0,-999.0,53,-99.99,,,0.02,,2013-01-31 19:12:00,
2013-01-31 13:22:00,45.0,29.0,30.18,WSW,240,7.0,-999.0,54,-99.99,,,0.02,,2013-01-31 19:22:00,
2013-01-31 13:32:00,46.0,29.0,30.17,SW,229,7.0,-999.0,52,-99.99,,,0.02,,2013-01-31 19:32:00,
2013-01-31 13:42:00,46.0,29.0,30.17,SW,229,7.0,-999.0,52,-99.99,,,0.02,,2013-01-31 19:42:00,
2013-01-31 13:52:00,46.0,29.0,30.17,WSW,249,4.0,-999.0,52,-99.99,,,0.02,,2013-01-31 19:52:00,
2013-01-31 14:02:00,47.0,29.0,30.16,WSW,245,5.0,-999.0,49,-99.99,,,0.02,,2013-01-31 20:02:00,
2013-01-31 14:11:00,47.0,29.0,30.16,WSW,245,5.0,-999.0,49,-99.99,,,0.02,,2013-01-31 20:11:00,
2013-01-31 14:21:00,48.0,29.0,30.16,SW,214,4.0,-999.0,47,-99.99,,,0.02,,2013-01-31 20:21:00,
2013-01-31 14:31:00,48.0,28.0,30.16,SW,229,6.0,-999.0,46,-99.99,,,0.02,,2013-01-31 20:31:00,
2013-01-31 14:42:00,48.0,28.0,30.16,SW,229,6.0,-999.0,46,-99.99,,,0.02,,2013-01-31 20:42:00,
2013-01-31 14:52:00,49.0,30.0,30.16,WSW,244,4.0,-999.0,47,-99.99,,,0.02,,2013-01-31 20:52:00,
2013-01-31 15:02:00,49.0,29.0,30.16,WSW,241,6.0,-999.0,45,-99.99,,,0.02,,2013-01-31 21:02:00,
2013-01-31 15:12:00,49.0,29.0,30.16,WSW,241,6.0,-999.0,45,-99.99,,,0.02,,2013-01-31 21:12:00,
2013-01-31 15:21:00,49.0,29.0,30.15,SW,232,5.0,-999.0,45,-99.99,,,0.02,,2013-01-31 21:21:00,
2013-01-31 15:31:00,49.0,30.0,30.14,West,274,4.0,-999.0,47,-99.99,,,0.02,,2013-01-31 21:31:00,
2013-01-31 15:42:00,49.0,30.0,30.14,West,274,4.0,-999.0,47,-99.99,,,0.02,,2013-01-31 21:42:00,
2013-01-31 15:52:00,50.0,29.0,30.14,West,264,4.0,-999.0,44,-99.99,,,0.02,,2013-01-31 21:52:00,
2013-01-31 16:02:00,50.0,28.0,30.13,WNW,298,4.0,-999.0,43,-99.99,,,0.02,,2013-01-31 22:02:00,
2013-01-31 16:11:00,50.0,28.0,30.13,WNW,298,4.0,-999.0,43,-99.99,,,0.02,,2013-01-31 22:11:00,
2013-01-31 16:22:00,50.0,30.0,30.12,SW,233,3.0,-999.0,46,-99.99,,,0.02,,2013-01-31 22:22:00,
2013-01-31 16:32:00,50.0,27.0,30.12,WSW,254,6.0,-999.0,41,-99.99,,,0.02,,2013-01-31 22:32:00,
2013-01-31 16:42:00,50.0,27.0,30.12,WSW,254,6.0,-999.0,41,-99.99,,,0.02,,2013-01-31 22:42:00,
2013-01-31 16:51:00,50.0,27.0,30.11,SSW,208,5.0,-999.0,41,-99.99,,,0.02,,2013-01-31 22:51:00,
2013-01-31 17:02:00,49.0,27.0,30.11,SSW,210,5.0,-999.0,42,-99.99,,,0.02,,2013-01-31 23:02:00,
2013-01-31 17:12:00,49.0,27.0,30.11,SSW,210,5.0,-999.0,42,-99.99,,,0.02,,2013-01-31 23:12:00,
2013-01-31 17:22:00,48.0,27.0,30.11,SSW,210,3.0,-999.0,43,-99.99,,,0.02,,2013-01-31 23:22:00,
2013-01-31 17:31:00,47.0,27.0,30.11,SW,219,3.0,-999.0,45,-99.99,,,0.02,,2013-01-31 23:31:00,
2013-01-31 17:42:00,47.0,27.0,30.11,SW,219,3.0,-999.0,45,-99.99,,,0.02,,2013-01-31 23:42:00,
2013-01-31 17:52:00,47.0,28.0,30.11,SSW,213,2.0,-999.0,47,-99.99,,,0.02,,2013-01-31 23:52:00,
2013-01-31 18:01:00,45.0,29.0,30.13,West,260,1.0,-999.0,54,-99.99,,,0.02,,2013-02-01 00:01:00,
2013-01-31 18:11:00,45.0,29.0,30.13,West,260,1.0,-999.0,54,-99.99,,,0.02,,2013-02-01 00:11:00,
2013-01-31 18:22:00,44.0,30.0,30.14,SSW,212,0.0,-999.0,57,-99.99,,,0.00,,2013-02-01 00:22:00,
2013-01-31 18:32:00,43.0,30.0,30.15,SSW,212,1.0,-999.0,59,-99.99,,,0.00,,2013-02-01 00:32:00,
2013-01-31 18:42:00,43.0,30.0,30.15,SSW,212,1.0,-999.0,59,-99.99,,,0.00,,2013-02-01 00:42:00,
2013-01-31 18:52:00,43.0,30.0,30.15,SW,225,1.0,-999.0,61,-99.99,,,0.00,,2013-02-01 00:52:00,
2013-01-31 19:01:00,42.0,30.0,30.15,SSW,209,1.0,-999.0,62,-99.99,,,0.00,,2013-02-01 01:01:00,
2013-01-31 19:11:00,41.0,30.0,30.15,SSW,209,1.0,-999.0,64,-99.99,,,0.00,,2013-02-01 01:11:00,
2013-01-31 19:21:00,41.0,30.0,30.15,SSW,209,1.0,-999.0,64,-99.99,,,0.00,,2013-02-01 01:21:00,
2013-01-31 19:32:00,41.0,30.0,30.16,SSW,209,0.0,-999.0,65,-99.99,,,0.00,,2013-02-01 01:32:00,
2013-01-31 19:42:00,41.0,30.0,30.16,SSW,209,0.0,-999.0,65,-99.99,,,0.00,,2013-02-01 01:42:00,
2013-01-31 19:52:00,40.0,30.0,30.15,SSW,205,1.0,-999.0,66,-99.99,,,0.00,,2013-02-01 01:52:00,
2013-01-31 20:02:00,40.0,29.0,30.15,South,170,1.0,-999.0,65,-99.99,,,0.00,,2013-02-01 02:02:00,
2013-01-31 20:11:00,40.0,29.0,30.15,South,170,1.0,-999.0,65,-99.99,,,0.00,,2013-02-01 02:11:00,
2013-01-31 20:21:00,40.0,30.0,30.15,SSW,194,1.0,-999.0,66,-99.99,,,0.00,,2013-02-01 02:21:00,
2013-01-31 20:31:00,40.0,31.0,30.16,SSW,194,0.0,-999.0,69,-99.99,,,0.00,,2013-02-01 02:31:00,
2013-01-31 20:41:00,40.0,31.0,30.16,SSW,194,0.0,-999.0,69,-99.99,,,0.00,,2013-02-01 02:41:00,
2013-01-31 20:52:00,39.0,30.0,30.16,SW,222,1.0,-999.0,71,-99.99,,,0.00,,2013-02-01 02:52:00,
2013-01-31 21:01:00,39.0,31.0,30.17,SW,223,0.0,-999.0,73,-99.99,,,0.00,,2013-02-01 03:01:00,
2013-01-31 21:12:00,39.0,31.0,30.17,SW,223,0.0,-999.0,73,-99.99,,,0.00,,2013-02-01 03:12:00,
2013-01-31 21:21:00,39.0,31.0,30.18,SW,229,1.0,-999.0,73,-99.99,,,0.00,,2013-02-01 03:21:00,
2013-01-31 21:32:00,39.0,30.0,30.18,WSW,247,2.0,-999.0,71,-99.99,,,0.00,,2013-02-01 03:32:00,
2013-01-31 21:42:00,39.0,30.0,30.18,WSW,247,2.0,-999.0,71,-99.99,,,0.00,,2013-02-01 03:42:00,
2013-01-31 21:51:00,40.0,31.0,30.18,SW,227,2.0,-999.0,71,-99.99,,,0.00,,2013-02-01 03:51:00,
2013-01-31 22:02:00,40.0,31.0,30.18,SW,220,2.0,-999.0,70,-99.99,,,0.00,,2013-02-01 04:02:00,
2013-01-31 22:11:00,40.0,31.0,30.18,SSW,199,2.0,-999.0,70,-99.99,,,0.00,,2013-02-01 04:11:00,
2013-01-31 22:21:00,40.0,31.0,30.18,SSW,199,2.0,-999.0,70,-99.99,,,0.00,,2013-02-01 04:21:00,
2013-01-31 22:32:00,40.0,31.0,30.18,SSW,213,3.0,-999.0,70,-99.99,,,0.00,,2013-02-01 04:32:00,
2013-01-31 22:41:00,40.0,31.0,30.18,SSW,213,3.0,-999.0,70,-99.99,,,0.00,,2013-02-01 04:41:00,
2013-01-31 22:52:00,41.0,31.0,30.17,South,187,3.0,-999.0,66,-99.99,,,0.00,,2013-02-01 04:52:00,
2013-01-31 23:03:00,43.0,31.0,30.17,WSW,245,4.0,-999.0,62,-99.99,,,0.00,,2013-02-01 05:03:00,
2013-01-31 23:11:00,43.0,31.0,30.17,WSW,245,4.0,-999.0,62,-99.99,,,0.00,,2013-02-01 05:11:00,
2013-01-31 23:22:00,44.0,31.0,30.17,SSW,197,4.0,-999.0,59,-99.99,,,0.00,,2013-02-01 05:22:00,
2013-01-31 23:32:00,44.0,30.0,30.17,WSW,254,4.0,-999.0,58,-99.99,,,0.00,,2013-02-01 05:32:00,
2013-01-31 23:42:00,44.0,30.0,30.17,WSW,254,4.0,-999.0,58,-99.99,,,0.00,,2013-02-01 05:42:00,
2013-01-31 23:52:00,45.0,31.0,30.20,WSW,258,6.0,-999.0,58,-99.99,,,0.00,,2013-02-01 05:52:00,